Location: Clyde
(45.1830°S, 169.3170°E)
Time: 16:48:14
(UTC+13:00)

ISS - Pass Details

Date: 02 February 2019
Orbit: 403 x 411 km, 51.6° (Epoch: 20 February)

Event Time Altitude Azimuth Distance (km) Brightness Sun altitude
Exits shadow 06:03:43 - 281° (W) 1,735 -1.2 -6.3°
Reaches altitude 10° 06:04:20 10° 278° (W) 1,495 -1.5 -6.2°
Maximum altitude 06:07:36 48° 202° (SSW) 553 -3.1 -5.7°
Drops below altitude 10° 06:10:53 10° 125° (SE) 1,499 1.0 -5.2°
Sets 06:13:01 0° 119° (ESE) 2,363 3.2 -4.9°
